Regional Weather Roundup
Issued by NWS

Home | Current Version | Previous Version | Graphics & Text | Print | Product List | Glossary On
Versions: 1 2 3 4 5 6 7 8 9 10 11 12 13 14 15 16 17 18 19 20 21 22 23 24 25 26 27 28 29 30 31 32 33 34 35 36 37 38 39 40 41 42 43 44 45 46 47 48 49 50
891
ASUS43 KIND 042159
RWRIN

WEATHER ROUNDUP FOR INDIANA
NATIONAL WEATHER SERVICE INDIANAPOLIS IN
600 PM EDT WED MAY 04 2016

NOTE: "FAIR" INDICATES FEW OR NO CLOUDS BELOW 12,000 FEET WITH NO
SIGNIFICANT WEATHER AND/OR OBSTRUCTIONS TO VISIBILITY.

* - STATION DOES NOT REPORT WEATHER SUCH AS PRECIPITATION OR FOG.

+ - STATION NOT QUALITY CONTROLLED BY THE NATIONAL WEATHER SERVICE.
    USE DATA WITH CAUTION...ESPECIALLY DEWPOINT AND RELATIVE
    HUMIDITY OBSERVATIONS.

INZ001>003-010>013-019-020-042300-
NORTHWEST INDIANA

CITY           SKY/WX    TMP DP  RH WIND       PRES   REMARKS
GARY /AIRPORT/ CLOUDY    46  41  81 N14       29.83R
RENSSELAER +   CLOUDY    48  39  71 N16G22    29.81R

$$

LMZ046-743>745-042300-
SOUTHERN LAKE MICHIGAN

STATION/POSITION TIME  TEMP    WIND        PRES    WAVE
                       AIR SEA DIR/SP/G            HT
                 (UTC) (F)     (DEG/KT/KT) (MB)    (FT)
BURNS HARBOR     2108   44     360/ 17/ 21 1009.5S
MICHIGAN CITY    2100   43     330/ 23/ 27   N/A

$$

INZ004-005-014>016-021>024-042300-
NORTH CENTRAL INDIANA

CITY           SKY/WX    TMP DP  RH WIND       PRES   REMARKS
ELKHART        CLOUDY    39  39 100 NW14G28   29.74R
GOSHEN         LGT RAIN  41  37  86 NW24G32   29.72R
SOUTH BEND     LGT RAIN  39  36  89 NW21G35   29.76R

$$

INZ006>009-017-018-025>027-042300-
NORTHEAST INDIANA

CITY           SKY/WX    TMP DP  RH WIND       PRES   REMARKS
ANGOLA *+      CLOUDY    43  34  70 NW15      29.66R
FORT WAYNE     CLOUDY    46  38  73 NW17G24   29.70R

$$

INZ028-029-035-036-043>045-051>053-042300-
WEST CENTRAL INDIANA

CITY           SKY/WX    TMP DP  RH WIND       PRES   REMARKS
CRAWFORDSVL +  CLOUDY    48  39  69 N10G17    29.79R
GREENCASTLE +  CLOUDY    50  41  71 NW13G18   29.79R
LAFAYETTE      CLOUDY    49  38  65 N14G24    29.79R
TERRE HAUTE    CLOUDY    56  42  59 N15       29.79R

$$

INZ030>032-037>040-046>048-054>057-064-065-042300-
CENTRAL INDIANA

CITY           SKY/WX    TMP DP  RH WIND       PRES   REMARKS
COLUMBUS       CLOUDY    55  45  67 N21       29.74R
INDIANAPOLIS   PTSUNNY   52  35  52 NW21G30   29.75R
-EAGLE CREEK   PTSUNNY   52  37  56 N14G25    29.76R
KOKOMO *+      CLOUDY    48  36  61 NW23G32   29.75R
SHELBYVILLE    PTSUNNY   55  39  54 N18G29    29.74R

$$

INZ033-034-041-042-049-050-058-059-042300-
EAST CENTRAL INDIANA

CITY           SKY/WX    TMP DP  RH WIND       PRES   REMARKS
MUNCIE         CLOUDY    50  39  66 NW22G30   29.73R

$$

INZ060-061-067>069-081>083-085>088-042300-
SOUTHWEST INDIANA

CITY           SKY/WX    TMP DP  RH WIND       PRES   REMARKS
EVANSVILLE     PTSUNNY   62  42  47 NW12G25   29.78R
HUNTINGBURG *+ PTSUNNY   61  43  51 NW23G31   29.76R

$$

INZ062-063-066-070>080-084-089>092-042300-
SOUTH CENTRAL AND SOUTHEAST INDIANA

CITY           SKY/WX    TMP DP  RH WIND       PRES   REMARKS
BLOOMINGTON    CLOUDY    56  43  61 NW6       29.75R
MADISON *+     SUNNY     59  36  41 NW12G23   29.73R
SEYMOUR +      MOSUNNY   59  39  47 NW15G23   29.73R

$$





USA.gov is the U.S. government's official web portal to all federal, state and local government web resources and services.